Marfa, TX

1:59 PM CDT on July 28, 2017 (GMT -0500)
Marfa Municipal

Weather History for KMRF - October, 2014

Change the Weather History Date:

Friday, October 17, 2014

  Actual Average Record
Temperature  
Mean Temperature 65 °F -  
Max Temperature 86 °F 71 °F 88 °F (2016)
Min Temperature 44 °F 42 °F 33 °F (1997)
Growing Degree Days 15 (Base 50)    
Moisture  
Dew Point 35 °F    
Average Humidity 38    
Maximum Humidity 66    
Minimum Humidity 14    
Precipitation  
Precipitation 0.00 in - - ()
Sea Level Pressure  
Sea Level Pressure 30.10 in    
Wind  
Wind Speed 6 mph (NNW)    
Max Wind Speed 12 mph    
Max Gust Speed 16 mph    
Visibility 10 miles    
Events      
Averages and records for this station are not official NWS values.
T = Trace of Precipitation, MM = Missing Value Source: NWS Daily Summary

Daily Weather History Graph

Daily Weather History Graph

Search for Another Location

Airport or City:

Trip Planner

Search our weather history database for the weather conditions in past years. The results will help you decide how hot, cold, wet, or windy it might be!

Date:

Astronomy

Oct. 17, 2014 Rise Set
Actual Time 7:59 AM CDT 7:22 PM CDT
Civil Twilight 7:35 AM CDT 7:46 PM CDT
Nautical Twilight 7:07 AM CDT 8:14 PM CDT
Astronomical Twilight 6:39 AM CDT 8:42 PM CDT
Moon 2:29 AM CDT (10/17) 3:49 PM CDT (10/17)
Length of Visible Light 12h 11m
Length of Day
11h 23m
Waning Crescent, 32% of the Moon is Illuminated
Oct 17
Waning Crescent
Oct 23
New
Oct 30
First Quarter
Nov 6
Full
Nov 14
Last Quarter

Hourly Weather History & Observations

Time (CDT) Temp. Windchill Dew Point Humidity Pressure Visibility Wind Dir Wind Speed Gust Speed Precip Events Conditions
12:15 AM 53.6 °F - 33.8 °F 47% 30.10 in 10.0 mi NNW 6.9 mph - N/A   Clear
12:35 AM 53.6 °F - 35.6 °F 51% 30.10 in 10.0 mi NNW 5.8 mph - N/A   Clear
12:55 AM 53.6 °F - 35.6 °F 51% 30.10 in 10.0 mi NW 3.5 mph - N/A   Clear
1:15 AM 51.8 °F - 33.8 °F 50% 30.10 in 10.0 mi NW 5.8 mph - N/A   Clear
1:35 AM 51.8 °F - 35.6 °F 54% 30.09 in 10.0 mi NNW 9.2 mph - N/A   Clear
1:55 AM 50.0 °F - 33.8 °F 54% 30.10 in 10.0 mi Calm Calm - N/A   Clear
2:15 AM 51.8 °F - 33.8 °F 50% 30.09 in 10.0 mi NNW 5.8 mph - N/A   Clear
2:35 AM 48.2 °F - 33.8 °F 58% 30.09 in 10.0 mi North 9.2 mph - N/A   Clear
2:55 AM 48.2 °F - 33.8 °F 58% 30.09 in 10.0 mi North 6.9 mph - N/A   Clear
3:15 AM 48.2 °F - 33.8 °F 58% 30.08 in 10.0 mi NNW 5.8 mph - N/A   Clear
3:35 AM 46.4 °F 42.4 °F 35.6 °F 66% 30.08 in 10.0 mi NNW 8.1 mph - N/A   Clear
3:55 AM 48.2 °F - 35.6 °F 62% 30.07 in 10.0 mi North 10.4 mph - N/A   Clear
4:15 AM 46.4 °F 42.4 °F 35.6 °F 66% 30.07 in 10.0 mi North 8.1 mph - N/A   Clear
4:35 AM 46.4 °F 43.5 °F 33.8 °F 62% 30.07 in 10.0 mi NNW 5.8 mph - N/A   Clear
4:55 AM 46.4 °F 42.4 °F 33.8 °F 62% 30.07 in 10.0 mi NNW 8.1 mph - N/A   Clear
5:15 AM 46.4 °F 45.2 °F 33.8 °F 62% 30.07 in 10.0 mi NNW 3.5 mph - N/A   Clear
5:35 AM 46.4 °F 43.5 °F 33.8 °F 62% 30.08 in 10.0 mi NNW 5.8 mph - N/A   Clear
5:55 AM 44.6 °F 42.2 °F 33.8 °F 66% 30.08 in 10.0 mi North 4.6 mph - N/A   Clear
6:15 AM 44.6 °F 42.2 °F 33.8 °F 66% 30.09 in 10.0 mi North 4.6 mph - N/A   Clear
6:35 AM 44.6 °F 41.4 °F 33.8 °F 66% 30.09 in 10.0 mi North 5.8 mph - N/A   Clear
6:55 AM 44.6 °F 40.7 °F 33.8 °F 66% 30.10 in 10.0 mi NNE 6.9 mph - N/A   Clear
7:15 AM 44.6 °F 41.4 °F 32.0 °F 61% 30.11 in 10.0 mi North 5.8 mph - N/A   Clear
7:35 AM 44.6 °F 43.1 °F 33.8 °F 66% 30.11 in 10.0 mi NNW 3.5 mph - N/A   Clear
7:55 AM 46.4 °F 43.5 °F 33.8 °F 62% 30.11 in 10.0 mi NNW 5.8 mph - N/A   Clear
8:15 AM 48.2 °F - 35.6 °F 62% 30.11 in 10.0 mi NNW 6.9 mph - N/A   Clear
8:35 AM 51.8 °F - 35.6 °F 54% 30.12 in 10.0 mi NNW 5.8 mph - N/A   Clear
8:55 AM 55.4 °F - 35.6 °F 47% 30.13 in 10.0 mi NW 6.9 mph - N/A   Clear
9:15 AM 60.8 °F - 37.4 °F 42% 30.14 in 10.0 mi NNW 3.5 mph - N/A   Clear
9:35 AM 66.2 °F - 37.4 °F 35% 30.15 in 10.0 mi Calm Calm - N/A   Clear
9:55 AM 69.8 °F - 37.4 °F 31% 30.16 in 10.0 mi Calm Calm - N/A   Clear
10:15 AM 71.6 °F - 37.4 °F 29% 30.16 in 10.0 mi Calm Calm - N/A   Clear
10:35 AM 73.4 °F - 37.4 °F 27% 30.16 in 10.0 mi Calm Calm - N/A   Clear
10:55 AM 75.2 °F - 37.4 °F 25% 30.17 in 10.0 mi Calm Calm - N/A   Clear
11:15 AM 77.0 °F - 37.4 °F 24% 30.17 in 10.0 mi East 3.5 mph - N/A   Clear
11:35 AM 78.8 °F - 37.4 °F 23% 30.16 in 10.0 mi Calm Calm - N/A   Clear
11:55 AM 80.6 °F - 37.4 °F 21% 30.16 in 10.0 mi SSW 6.9 mph - N/A   Clear
12:15 PM 80.6 °F - 35.6 °F 20% 30.16 in 10.0 mi SSE 5.8 mph - N/A   Clear
12:35 PM 82.4 °F - 35.6 °F 19% 30.15 in 10.0 mi South 6.9 mph - N/A   Clear
12:55 PM 84.2 °F - 35.6 °F 18% 30.15 in 10.0 mi SSW 11.5 mph 16.1 mph N/A   Clear
1:15 PM 82.4 °F - 35.6 °F 19% 30.14 in 10.0 mi South 8.1 mph - N/A   Clear
1:35 PM 84.2 °F - 35.6 °F 18% 30.13 in 10.0 mi SSW 8.1 mph - N/A   Clear
1:55 PM 84.2 °F - 35.6 °F 18% 30.12 in 10.0 mi West 9.2 mph - N/A   Clear
2:15 PM 84.2 °F - 35.6 °F 18% 30.11 in 6.0 mi South 10.4 mph - N/A   Clear
2:35 PM 84.2 °F - 35.6 °F 18% 30.10 in 10.0 mi SSW 11.5 mph - N/A   Clear
2:55 PM 84.2 °F - 35.6 °F 18% 30.09 in 10.0 mi SE 4.6 mph - N/A   Clear
3:15 PM 86.0 °F - 35.6 °F 17% 30.08 in 10.0 mi WSW 10.4 mph - N/A   Clear
3:35 PM 84.2 °F - 35.6 °F 18% 30.08 in 10.0 mi South 6.9 mph - N/A   Clear
3:55 PM 84.2 °F - 33.8 °F 16% 30.07 in 10.0 mi SSW 3.5 mph - N/A   Clear
4:15 PM 84.2 °F - 33.8 °F 16% 30.07 in 10.0 mi Calm Calm - N/A   Clear
4:35 PM 84.2 °F - 33.8 °F 16% 30.06 in 10.0 mi NNE 6.9 mph - N/A   Clear
4:55 PM 84.2 °F - 33.8 °F 16% 30.06 in 10.0 mi Calm Calm - N/A   Clear
5:15 PM 84.2 °F - 33.8 °F 16% 30.06 in 10.0 mi South 6.9 mph - N/A   Clear
5:35 PM 84.2 °F - 33.8 °F 16% 30.06 in 10.0 mi SE 5.8 mph - N/A   Clear
5:55 PM 84.2 °F - 32.0 °F 15% 30.06 in 10.0 mi South 5.8 mph - N/A   Clear
6:15 PM 84.2 °F - 30.2 °F 14% 30.06 in 10.0 mi Calm Calm - N/A   Clear
6:35 PM 82.4 °F - 32.0 °F 16% 30.06 in 10.0 mi SSW 5.8 mph - N/A   Clear
6:55 PM 80.6 °F - 33.8 °F 18% 30.06 in 10.0 mi SSW 5.8 mph - N/A   Clear
7:15 PM 77.0 °F - 32.0 °F 19% 30.07 in 10.0 mi South 6.9 mph - N/A   Clear
7:35 PM 75.2 °F - 30.2 °F 19% 30.07 in 10.0 mi South 8.1 mph - N/A   Clear
7:55 PM 73.4 °F - 32.0 °F 22% 30.07 in 10.0 mi South 8.1 mph - N/A   Clear
8:15 PM 71.6 °F - 32.0 °F 23% 30.08 in 10.0 mi SSE 4.6 mph - N/A   Clear
8:35 PM 66.2 °F - 30.2 °F 26% 30.09 in 4.0 mi NE 5.8 mph - N/A   Clear
8:55 PM 69.8 °F - 32.0 °F 25% 30.10 in 10.0 mi NNE 5.8 mph - N/A   Clear
9:15 PM 64.4 °F - 32.0 °F 30% 30.10 in 10.0 mi NE 5.8 mph - N/A   Clear
9:35 PM 60.8 °F - 33.8 °F 36% 30.11 in 4.0 mi NE 8.1 mph - N/A   Clear
9:55 PM 60.8 °F - 33.8 °F 36% 30.11 in 10.0 mi North 6.9 mph - N/A   Clear
10:15 PM 57.2 °F - 35.6 °F 44% 30.11 in 8.0 mi Calm Calm - N/A   Clear
10:35 PM 60.8 °F - 37.4 °F 42% 30.11 in 10.0 mi North 9.2 mph - N/A   Clear
10:55 PM 59.0 °F - 37.4 °F 45% 30.12 in 8.0 mi ENE 5.8 mph - N/A   Clear
11:15 PM 57.2 °F - 37.4 °F 48% 30.12 in 10.0 mi North 5.8 mph - N/A   Clear
11:35 PM 55.4 °F - 37.4 °F 51% 30.12 in 10.0 mi NE 3.5 mph - N/A   Clear
11:55 PM 55.4 °F - 37.4 °F 51% 30.12 in 10.0 mi NNE 4.6 mph - N/A   Clear